Tracking 30743 objects as of 21-Jun-2025
HD Live streaming from Space Station
objects crossing your sky now

PICO-01B009

Track PICO-01B009 now!
10-day predictions


NORAD ID: 58287
Int'l Code: 2023-174AH
Perigee: 451.1 km
Apogee: 459.3 km
Inclination: 97.4 °
Period: 93.5 minutes
Semi major axis: 6826 km
RCS: Unknown
Launch date: November 11, 2023
Source: Italy (IT)
Launch site: AIR FORCE WESTERN TEST RANGE (AFWTR)
Your satellite tracking list
Your tracking list is empty




NASA's NSSDC Master Catalog

Two Line Element Set (TLE):
1 58287U 23174AH  25171.83817925  .00015110  00000-0  38869-3 0  9991
2 58287  97.4119 251.8704 0005980  13.9178 346.2231 15.39336604 90034
Source of the keplerian elements: AFSPC